Погода в Райме

Йемен     14°39′37″N   43°40′13″E
темп.,
°C
ветер,
м/с
пор.,
м/с
влажн.,
%
обл.,
%
осадки,
мм/ч
давл.,
гПа
погр.,
м
29 мая, вс
вс2900:00+24юв225714 0.1 1011105
03:00+24вюв33541 0.1 101049
06:00+24в224912 0.0 101118
09:00+29ссз112823 0.0 10121167
12:00+31з542988 0.0 10102351
15:00+29з544175 0.2 10091928
18:00+27зсз4349100 0.4 10101235
21:00+26юз1153100 1.1 1012410
30 мая, пн
пн3000:00+25з015865 0.1 101260
03:00+24вюв22595 0.1 101129
06:00+23вюв22555 0.0 101226
09:00+29с012691 0.0 1012967
12:00+32з462195 0.0 10093018
15:00+31з5331100 0.0 10082148
18:00+28зсз433569 0.1 10101068
21:00+27ююз123811 0.2 1012289
31 мая, вт
вт3100:00+26ю11442 0.0 101122
03:00+25вюв22471 0.0 101017
06:00+24вюв22474 0.0 101116
09:00+29с01255 0.0 1010979
12:00+33з471820 0.0 10073539
15:00+31з64298 0.0 10072311
18:00+29зсз43354 0.0 10081046
21:00+27ююз12395 0.0 1010328
1 июня, ср
ср100:00+26ююв22431 0.0 101053
03:00+25юв22440 0.0 100820
06:00+24вюв22435 0.0 100916
09:00+30зсз01220 0.0 10091031
12:00+33зсз55186 0.0 10073009
15:00+32з652110 0.0 10062233
18:00+29з333019 0.0 1007909
21:00+27юз11355 0.0 1009194
2 июня, чт
чт200:00+26юв22385 0.0 100823
03:00+25в22405 0.0 100712
06:00+25в224294 0.0 100813
09:00+30зсз22265 0.0 10081226
12:00+31з552761 0.0 10071814
15:00+31з532812 0.0 10052015
18:00+29з32326 0.0 10061136
21:00+27юз113584 0.2 1008152